• în Republica Moldova
  • Lista ţărilor
  • Pe 7 zile
  • Temperatura apei
  • Hartă satelitară
  • Meteo pe hartă
  • Widget-uri
  • user-avatar
    Intrare

    Meteo pe oră la Sydney

    Astăzi, 22 Iunie, Joi

    Timp Temperatura Precipitaţii Vânt Presiune Umiditate
    00:00 +10°C° 0,1 mm 4 m/s 769 mmHg 95%
    01:00 +10°C° 0,1 mm 4 m/s 769 mmHg 95%
    02:00 +10°C° 0,1 mm 4 m/s 769 mmHg 95%
    03:00 +10°C° 0,1 mm 4 m/s 769 mmHg 95%
    04:00 +10°C° 0 mm 4 m/s 769 mmHg 95%
    05:00 +10°C° 0 mm 4 m/s 769 mmHg 94%
    06:00 +11°C° 0 mm 4 m/s 769 mmHg 93%
    07:00 +11°C° 0 mm 4 m/s 770 mmHg 92%
    08:00 +12°C° 0 mm 4 m/s 770 mmHg 86%
    09:00 +14°C° 0 mm 4 m/s 769 mmHg 79%
    10:00 +16°C° 0 mm 3 m/s 770 mmHg 73%
    11:00 +17°C° 0 mm 3 m/s 769 mmHg 68%
    12:00 +18°C° 0 mm 2 m/s 768 mmHg 63%
    13:00 +19°C° 0 mm 2 m/s 768 mmHg 58%
    14:00 +19°C° 0 mm 2 m/s 768 mmHg 63%
    15:00 +18°C° 0 mm 2 m/s 767 mmHg 68%
    16:00 +16°C° 0 mm 2 m/s 767 mmHg 77%
    17:00 +15°C° 0 mm 1 m/s 767 mmHg 82%
    18:00 +13°C° 0 mm 1 m/s 767 mmHg 87%
    19:00 +12°C° 0 mm 1 m/s 767 mmHg 92%
    20:00 +12°C° 0 mm 1 m/s 767 mmHg 93%
    21:00 +11°C° 0 mm 1 m/s 767 mmHg 94%
    22:00 +10°C° 0 mm 2 m/s 767 mmHg 95%
    23:00 +10°C° 0 mm 2 m/s 767 mmHg 95%

    Mâine, 23 Iunie, Vineri

    Timp Temperatura Precipitaţii Vânt Presiune Umiditate
    00:00 +9°C° 0 mm 2 m/s 766 mmHg 95%
    01:00 +9°C° 0 mm 2 m/s 766 mmHg 96%
    02:00 +8°C° 0 mm 3 m/s 766 mmHg 95%
    03:00 +8°C° 0 mm 3 m/s 766 mmHg 95%
    04:00 +8°C° 0 mm 3 m/s 765 mmHg 94%
    05:00 +8°C° 0 mm 3 m/s 765 mmHg 92%
    06:00 +8°C° 0 mm 3 m/s 765 mmHg 90%
    07:00 +7°C° 0 mm 3 m/s 765 mmHg 88%
    08:00 +10°C° 0 mm 2 m/s 765 mmHg 79%
    09:00 +13°C° 0 mm 2 m/s 765 mmHg 69%
    10:00 +15°C° 0 mm 2 m/s 764 mmHg 60%
    11:00 +16°C° 0 mm 2 m/s 763 mmHg 54%
    12:00 +18°C° 0 mm 3 m/s 763 mmHg 49%
    13:00 +20°C° 0 mm 3 m/s 762 mmHg 43%
    14:00 +19°C° 0 mm 3 m/s 761 mmHg 48%
    15:00 +18°C° 0 mm 2 m/s 761 mmHg 53%
    16:00 +18°C° 0 mm 2 m/s 760 mmHg 57%
    17:00 +16°C° 0 mm 3 m/s 761 mmHg 60%
    18:00 +13°C° 0 mm 4 m/s 761 mmHg 62%
    19:00 +12°C° 0 mm 4 m/s 761 mmHg 64%
    20:00 +10°C° 0 mm 5 m/s 761 mmHg 67%
    21:00 +10°C° 0 mm 5 m/s 761 mmHg 70%
    22:00 +9°C° 0 mm 5 m/s 761 mmHg 73%
    23:00 +9°C° 0 mm 5 m/s 761 mmHg 72%

    Poimâine, 24 Iunie, Sâmbătă

    Timp Temperatura Precipitaţii Vânt Presiune Umiditate
    00:00 +9°C° 0 mm 6 m/s 761 mmHg 72%
    01:00 +9°C° 0 mm 6 m/s 761 mmHg 71%
    02:00 +9°C° 0 mm 6 m/s 761 mmHg 69%
    03:00 +9°C° 0 mm 6 m/s 761 mmHg 67%
    04:00 +9°C° 0 mm 6 m/s 761 mmHg 65%
    05:00 +8°C° 0 mm 5 m/s 761 mmHg 68%
    06:00 +8°C° 0 mm 5 m/s 762 mmHg 70%
    07:00 +7°C° 0 mm 4 m/s 762 mmHg 72%
    08:00 +10°C° 0 mm 4 m/s 762 mmHg 65%
    09:00 +12°C° 0 mm 4 m/s 762 mmHg 59%
    10:00 +14°C° 0 mm 4 m/s 762 mmHg 52%
    11:00 +17°C° 0 mm 3 m/s 762 mmHg 48%
    12:00 +18°C° 0 mm 3 m/s 761 mmHg 43%
    13:00 +20°C° 0 mm 3 m/s 761 mmHg 38%
    14:00 +19°C° 0 mm 2 m/s 761 mmHg 46%
    15:00 +18°C° 0 mm 2 m/s 761 mmHg 54%
    16:00 +18°C° 0 mm 1 m/s 761 mmHg 62%
    17:00 +15°C° 0 mm 1 m/s 761 mmHg 64%
    18:00 +13°C° 0 mm 1 m/s 762 mmHg 66%
    19:00 +12°C° 0 mm 1 m/s 762 mmHg 68%
    20:00 +10°C° 0 mm 2 m/s 763 mmHg 70%
    21:00 +10°C° 0 mm 2 m/s 763 mmHg 73%
    22:00 +10°C° 0 mm 3 m/s 763 mmHg 75%
    23:00 +9°C° 0 mm 3 m/s 763 mmHg 79%

    25 Iunie, Duminică

    Timp Temperatura Precipitaţii Vânt Presiune Umiditate
    00:00 +8°C° 0 mm 3 m/s 763 mmHg 82%
    01:00 +8°C° 0 mm 3 m/s 763 mmHg 86%
    02:00 +8°C° 0 mm 3 m/s 763 mmHg 87%
    03:00 +7°C° 0 mm 2 m/s 763 mmHg 89%
    04:00 +7°C° 0 mm 2 m/s 763 mmHg 90%
    05:00 +7°C° 0 mm 2 m/s 763 mmHg 90%
    06:00 +7°C° 0 mm 2 m/s 763 mmHg 90%
    07:00 +7°C° 0 mm 2 m/s 764 mmHg 89%
    08:00 +9°C° 0 mm 2 m/s 764 mmHg 81%
    09:00 +12°C° 0 mm 3 m/s 764 mmHg 73%
    10:00 +14°C° 0 mm 3 m/s 764 mmHg 65%
    11:00 +17°C° 0 mm 3 m/s 763 mmHg 59%
    12:00 +18°C° 0 mm 3 m/s 762 mmHg 53%
    13:00 +20°C° 0 mm 3 m/s 762 mmHg 48%
    14:00 +20°C° 0 mm 3 m/s 762 mmHg 51%
    15:00 +19°C° 0 mm 2 m/s 761 mmHg 54%
    16:00 +18°C° 0 mm 2 m/s 761 mmHg 57%
    17:00 +17°C° 0 mm 3 m/s 762 mmHg 62%
    18:00 +14°C° 0 mm 3 m/s 762 mmHg 66%
    19:00 +12°C° 0 mm 4 m/s 762 mmHg 71%
    20:00 +12°C° 0 mm 4 m/s 762 mmHg 74%
    21:00 +11°C° 0 mm 4 m/s 762 mmHg 78%
    22:00 +11°C° 0 mm 4 m/s 762 mmHg 81%
    23:00 +10°C° 0,1 mm 4 m/s 762 mmHg 82%

    26 Iunie, Luni

    Timp Temperatura Precipitaţii Vânt Presiune Umiditate
    00:00 +10°C° 0,1 mm 4 m/s 762 mmHg 83%
    01:00 +10°C° 0,1 mm 4 m/s 762 mmHg 84%
    02:00 +9°C° 0 mm 5 m/s 762 mmHg 85%
    03:00 +9°C° 0 mm 5 m/s 762 mmHg 85%
    04:00 +8°C° 0 mm 5 m/s 763 mmHg 85%
    05:00 +8°C° 0 mm 5 m/s 763 mmHg 86%
    06:00 +8°C° 0 mm 5 m/s 764 mmHg 87%
    07:00 +8°C° 0 mm 5 m/s 765 mmHg 87%
    08:00 +9°C° 0 mm 5 m/s 765 mmHg 77%
    09:00 +12°C° 0 mm 5 m/s 766 mmHg 67%
    10:00 +13°C° 0 mm 5 m/s 766 mmHg 56%
    11:00 +14°C° 0 mm 5 m/s 766 mmHg 53%
    12:00 +15°C° 0 mm 5 m/s 766 mmHg 49%
    13:00 +16°C° 0 mm 5 m/s 766 mmHg 45%
    14:00 +17°C° 0 mm 4 m/s 766 mmHg 49%
    15:00 +15°C° 0 mm 4 m/s 766 mmHg 54%
    16:00 +14°C° 0 mm 4 m/s 766 mmHg 58%
    17:00 +13°C° 0 mm 4 m/s 767 mmHg 66%
    18:00 +11°C° 0 mm 4 m/s 768 mmHg 74%
    19:00 +8°C° 0 mm 4 m/s 768 mmHg 82%
    20:00 +8°C° 0 mm 4 m/s 769 mmHg 80%
    21:00 +10°C° 0 mm 4 m/s 769 mmHg 78%
    22:00 +10°C° 0 mm 3 m/s 769 mmHg 76%
    23:00 +10°C° 0 mm 4 m/s 769 mmHg 76%

    27 Iunie, Marţi

    Timp Temperatura Precipitaţii Vânt Presiune Umiditate
    00:00 +10°C° 0 mm 4 m/s 769 mmHg 76%
    01:00 +10°C° 0 mm 4 m/s 769 mmHg 77%
    02:00 +8°C° 0,1 mm 4 m/s 769 mmHg 79%
    03:00 +8°C° 0,1 mm 4 m/s 769 mmHg 81%
    04:00 +7°C° 0,1 mm 4 m/s 769 mmHg 83%
    05:00 +7°C° 0 mm 4 m/s 769 mmHg 82%
    06:00 +7°C° 0 mm 4 m/s 770 mmHg 82%
    07:00 +7°C° 0 mm 4 m/s 770 mmHg 82%
    08:00 +9°C° 0,1 mm 3 m/s 770 mmHg 77%
    09:00 +10°C° 0,1 mm 3 m/s 770 mmHg 73%
    10:00 +11°C° 0,1 mm 3 m/s 770 mmHg 68%
    11:00 +12°C° 0 mm 3 m/s 770 mmHg 65%
    12:00 +14°C° 0 mm 2 m/s 769 mmHg 63%
    13:00 +15°C° 0 mm 2 m/s 768 mmHg 61%
    14:00 +15°C° 0 mm 2 m/s 768 mmHg 64%
    15:00 +15°C° 0 mm 2 m/s 768 mmHg 67%
    16:00 +15°C° 0 mm 2 m/s 768 mmHg 70%
    17:00 +13°C° 0 mm 1 m/s 768 mmHg 76%
    18:00 +12°C° 0 mm 1 m/s 768 mmHg 82%
    19:00 +11°C° 0 mm 1 m/s 768 mmHg 88%
    20:00 +11°C° 0,2 mm 1 m/s 768 mmHg 89%
    21:00 +11°C° 0,2 mm 1 m/s 768 mmHg 90%
    22:00 +10°C° 0,2 mm 1 m/s 768 mmHg 91%
    23:00 +10°C° 0,1 mm 1 m/s 768 mmHg 92%
    Arată mai mult